Time,TemperatureF,DewpointF,PressureIn,WindDirection,WindDirectionDegrees,WindSpeedMPH,WindSpeedGustMPH,Humidity,HourlyPrecipIn,Conditions,Clouds,dailyrainin,SoftwareType,DateUTC
2013-05-15 00:02:00,77.2,57.7,29.14,WSW,252,3.0,21.0,51,0.00,,,0.00,meteohub,2013-05-15 05:02:00,
2013-05-15 00:07:00,76.8,57.9,29.14,South,180,6.0,21.0,52,0.00,,,0.00,meteohub,2013-05-15 05:07:00,
2013-05-15 00:12:00,76.6,57.7,29.14,WSW,246,12.0,20.0,52,0.00,,,0.00,meteohub,2013-05-15 05:12:00,
2013-05-15 00:17:00,76.6,57.7,29.14,WSW,250,3.0,20.0,52,0.00,,,0.00,meteohub,2013-05-15 05:17:00,
2013-05-15 00:22:00,76.5,57.6,29.14,WSW,254,5.0,17.0,52,0.00,,,0.00,meteohub,2013-05-15 05:22:00,
2013-05-15 00:27:00,76.3,57.9,29.14,SSW,209,2.0,17.0,53,0.00,,,0.00,meteohub,2013-05-15 05:27:00,
2013-05-15 00:32:00,75.9,57.6,29.15,SSW,206,11.0,17.0,53,0.00,,,0.00,meteohub,2013-05-15 05:32:00,
2013-05-15 00:37:00,75.7,57.4,29.14,SW,219,10.0,13.0,53,0.00,,,0.00,meteohub,2013-05-15 05:37:00,
2013-05-15 00:43:00,75.7,57.4,29.15,SW,217,12.0,17.0,53,0.00,,,0.00,meteohub,2013-05-15 05:43:00,
2013-05-15 00:48:00,75.7,57.4,29.14,SW,221,13.0,17.0,53,0.00,,,0.00,meteohub,2013-05-15 05:48:00,
2013-05-15 00:53:00,75.9,57.0,29.14,SW,214,10.0,20.0,52,0.00,,,0.00,meteohub,2013-05-15 05:53:00,
2013-05-15 00:58:00,76.1,57.2,29.14,West,265,6.0,20.0,52,0.00,,,0.00,meteohub,2013-05-15 05:58:00,
2013-05-15 01:03:00,75.9,57.0,29.14,SSW,209,6.0,20.0,52,0.00,,,0.00,meteohub,2013-05-15 06:03:00,
2013-05-15 01:08:00,75.9,57.0,29.15,SSW,210,7.0,18.0,52,0.00,,,0.00,meteohub,2013-05-15 06:08:00,
2013-05-15 01:13:00,75.7,56.8,29.15,SW,219,6.0,17.0,52,0.00,,,0.00,meteohub,2013-05-15 06:13:00,
2013-05-15 01:18:00,75.6,56.7,29.15,SW,215,10.0,16.0,52,0.00,,,0.00,meteohub,2013-05-15 06:18:00,
2013-05-15 01:23:00,75.6,56.7,29.15,SW,224,1.0,16.0,52,0.00,,,0.00,meteohub,2013-05-15 06:23:00,
2013-05-15 01:28:00,75.4,56.5,29.15,WSW,246,12.0,16.0,52,0.00,,,0.00,meteohub,2013-05-15 06:28:00,
2013-05-15 01:33:00,75.2,56.3,29.15,West,265,10.0,15.0,52,0.00,,,0.00,meteohub,2013-05-15 06:33:00,
2013-05-15 01:38:00,75.2,56.3,29.15,WSW,252,0.0,15.0,52,0.00,,,0.00,meteohub,2013-05-15 06:38:00,
2013-05-15 01:43:00,75.0,56.1,29.15,SW,230,5.0,18.0,52,0.00,,,0.00,meteohub,2013-05-15 06:43:00,
2013-05-15 01:48:00,75.0,56.1,29.15,SW,230,7.0,18.0,52,0.00,,,0.00,meteohub,2013-05-15 06:48:00,
2013-05-15 01:53:00,74.8,55.6,29.15,SW,235,9.0,18.0,51,0.00,,,0.00,meteohub,2013-05-15 06:53:00,
2013-05-15 01:58:00,74.8,55.6,29.15,WSW,247,10.0,15.0,51,0.00,,,0.00,meteohub,2013-05-15 06:58:00,
2013-05-15 02:03:00,74.8,55.6,29.15,WSW,252,10.0,15.0,51,0.00,,,0.00,meteohub,2013-05-15 07:03:00,
2013-05-15 02:08:00,74.8,55.6,29.15,WSW,253,5.0,15.0,51,0.00,,,0.00,meteohub,2013-05-15 07:08:00,
2013-05-15 02:13:00,74.7,55.4,29.16,West,261,7.0,17.0,51,0.00,,,0.00,meteohub,2013-05-15 07:13:00,
2013-05-15 02:18:00,74.7,55.4,29.16,West,281,0.0,17.0,51,0.00,,,0.00,meteohub,2013-05-15 07:18:00,
2013-05-15 02:23:00,74.5,55.2,29.16,SW,227,5.0,19.0,51,0.00,,,0.00,meteohub,2013-05-15 07:23:00,
2013-05-15 02:28:00,74.3,55.6,29.16,WSW,252,9.0,19.0,52,0.00,,,0.00,meteohub,2013-05-15 07:28:00,
2013-05-15 02:33:00,74.1,55.4,29.16,WSW,240,5.0,19.0,52,0.00,,,0.00,meteohub,2013-05-15 07:33:00,
2013-05-15 02:38:00,73.9,55.2,29.16,West,265,7.0,15.0,52,0.00,,,0.00,meteohub,2013-05-15 07:38:00,
2013-05-15 02:43:00,73.9,55.2,29.16,WSW,246,16.0,16.0,52,0.00,,,0.00,meteohub,2013-05-15 07:43:00,
2013-05-15 02:48:00,73.9,55.2,29.16,SW,229,0.0,18.0,52,0.00,,,0.00,meteohub,2013-05-15 07:48:00,
2013-05-15 02:53:00,73.8,55.0,29.17,WSW,245,5.0,18.0,52,0.00,,,0.00,meteohub,2013-05-15 07:53:00,
2013-05-15 02:58:00,73.6,55.4,29.16,WSW,254,3.0,18.0,53,0.00,,,0.00,meteohub,2013-05-15 07:58:00,
2013-05-15 03:03:00,73.2,55.0,29.16,WSW,242,7.0,12.0,53,0.00,,,0.00,meteohub,2013-05-15 08:03:00,
2013-05-15 03:09:00,73.2,55.0,29.17,SW,229,6.0,12.0,53,0.00,,,0.00,meteohub,2013-05-15 08:09:00,
2013-05-15 03:14:00,73.0,55.4,29.16,West,265,5.0,12.0,54,0.00,,,0.00,meteohub,2013-05-15 08:14:00,
2013-05-15 03:19:00,72.9,55.2,29.17,WSW,256,5.0,14.0,54,0.00,,,0.00,meteohub,2013-05-15 08:19:00,
2013-05-15 03:24:00,72.9,55.2,29.17,WSW,256,5.0,14.0,54,0.00,,,0.00,meteohub,2013-05-15 08:24:00,
2013-05-15 03:29:00,72.7,55.0,29.17,WSW,244,2.0,14.0,54,0.00,,,0.00,meteohub,2013-05-15 08:29:00,
2013-05-15 03:34:00,72.7,55.0,29.17,West,263,4.0,16.0,54,0.00,,,0.00,meteohub,2013-05-15 08:34:00,
2013-05-15 03:39:00,72.5,55.4,29.17,SW,224,0.0,16.0,55,0.00,,,0.00,meteohub,2013-05-15 08:39:00,
2013-05-15 03:44:00,72.3,55.2,29.17,SW,221,5.0,16.0,55,0.00,,,0.00,meteohub,2013-05-15 08:44:00,
2013-05-15 03:49:00,72.1,55.6,29.17,WSW,245,2.0,12.0,56,0.00,,,0.00,meteohub,2013-05-15 08:49:00,
2013-05-15 03:54:00,71.8,55.2,29.17,WSW,240,4.0,11.0,56,0.00,,,0.00,meteohub,2013-05-15 08:54:00,
2013-05-15 03:59:00,71.4,55.4,29.17,SW,229,0.0,9.0,57,0.00,,,0.00,meteohub,2013-05-15 08:59:00,
2013-05-15 04:04:00,71.2,55.8,29.18,WSW,250,1.0,14.0,58,0.00,,,0.00,meteohub,2013-05-15 09:04:00,
2013-05-15 04:09:00,71.1,55.6,29.18,West,262,0.0,14.0,58,0.00,,,0.00,meteohub,2013-05-15 09:09:00,
2013-05-15 04:14:00,70.9,55.4,29.18,WSW,251,0.0,14.0,58,0.00,,,0.00,meteohub,2013-05-15 09:14:00,
2013-05-15 04:19:00,70.5,55.6,29.18,SSE,163,7.0,12.0,59,0.00,,,0.00,meteohub,2013-05-15 09:19:00,
2013-05-15 04:24:00,70.3,55.4,29.18,SW,231,0.0,11.0,59,0.00,,,0.00,meteohub,2013-05-15 09:24:00,
2013-05-15 04:29:00,70.2,55.6,29.18,West,263,2.0,11.0,60,0.00,,,0.00,meteohub,2013-05-15 09:29:00,
2013-05-15 04:34:00,70.0,55.4,29.18,SW,215,4.0,11.0,60,0.00,,,0.00,meteohub,2013-05-15 09:34:00,
2013-05-15 04:39:00,69.8,55.8,29.18,SW,232,0.0,11.0,61,0.00,,,0.00,meteohub,2013-05-15 09:39:00,
2013-05-15 04:44:00,69.6,55.6,29.18,WSW,252,2.0,8.0,61,0.00,,,0.00,meteohub,2013-05-15 09:44:00,
2013-05-15 04:49:00,69.4,55.9,29.18,SW,227,5.0,8.0,62,0.00,,,0.00,meteohub,2013-05-15 09:49:00,
2013-05-15 04:54:00,69.3,55.8,29.18,SW,227,3.0,7.0,62,0.00,,,0.00,meteohub,2013-05-15 09:54:00,
2013-05-15 04:59:00,69.1,55.6,29.18,SSW,209,5.0,11.0,62,0.00,,,0.00,meteohub,2013-05-15 09:59:00,
2013-05-15 05:04:00,68.9,55.8,29.18,SSW,205,0.0,11.0,63,0.00,,,0.00,meteohub,2013-05-15 10:04:00,
2013-05-15 05:09:00,68.7,55.6,29.18,WSW,244,4.0,11.0,63,0.00,,,0.00,meteohub,2013-05-15 10:09:00,
2013-05-15 05:14:00,68.7,56.1,29.19,West,267,0.0,10.0,64,0.00,,,0.00,meteohub,2013-05-15 10:14:00,
2013-05-15 05:19:00,68.5,55.9,29.19,SW,220,5.0,10.0,64,0.00,,,0.00,meteohub,2013-05-15 10:19:00,
2013-05-15 05:24:00,68.4,55.8,29.19,SSW,192,4.0,10.0,64,0.00,,,0.00,meteohub,2013-05-15 10:24:00,
2013-05-15 05:29:00,68.2,55.9,29.19,SW,217,5.0,10.0,65,0.00,,,0.00,meteohub,2013-05-15 10:29:00,
2013-05-15 05:34:00,68.0,55.8,29.19,SW,224,0.0,11.0,65,0.00,,,0.00,meteohub,2013-05-15 10:34:00,
2013-05-15 05:39:00,67.8,56.1,29.19,SW,235,3.0,11.0,66,0.00,,,0.00,meteohub,2013-05-15 10:39:00,
2013-05-15 05:44:00,67.8,56.1,29.19,SW,229,0.0,9.0,66,0.00,,,0.00,meteohub,2013-05-15 10:44:00,
2013-05-15 05:49:00,67.6,56.3,29.19,WSW,246,6.0,9.0,67,0.00,,,0.00,meteohub,2013-05-15 10:49:00,
2013-05-15 05:54:00,67.6,56.3,29.19,SW,220,5.0,10.0,67,0.00,,,0.00,meteohub,2013-05-15 10:54:00,
2013-05-15 06:00:00,67.5,56.1,29.19,SW,229,4.0,10.0,67,0.00,,,0.00,meteohub,2013-05-15 11:00:00,
2013-05-15 06:05:00,67.5,56.1,29.20,SW,233,6.0,10.0,67,0.00,,,0.00,meteohub,2013-05-15 11:05:00,
2013-05-15 06:12:00,67.5,56.5,29.20,WSW,238,3.0,13.0,68,0.00,,,0.00,meteohub,2013-05-15 11:12:00,
2013-05-15 06:17:00,67.3,56.3,29.20,WSW,254,3.0,10.0,68,0.00,,,0.00,meteohub,2013-05-15 11:17:00,
2013-05-15 06:26:00,67.3,56.3,29.20,WSW,238,9.0,12.0,68,0.00,,,0.00,meteohub,2013-05-15 11:26:00,
2013-05-15 06:33:00,67.3,56.8,29.19,SW,216,5.0,11.0,69,0.00,,,0.00,meteohub,2013-05-15 11:33:00,
2013-05-15 06:42:00,67.5,57.0,29.20,SW,216,1.0,12.0,69,0.00,,,0.00,meteohub,2013-05-15 11:42:00,
2013-05-15 06:48:00,67.5,57.0,29.20,SW,234,4.0,7.0,69,0.00,,,0.00,meteohub,2013-05-15 11:48:00,
2013-05-15 06:55:00,67.6,57.0,29.21,SW,215,0.0,10.0,69,0.00,,,0.00,meteohub,2013-05-15 11:55:00,
2013-05-15 07:02:00,68.2,57.6,29.21,WSW,240,3.0,9.0,69,0.00,,,0.00,meteohub,2013-05-15 12:02:00,
2013-05-15 07:09:00,68.2,57.2,29.21,SW,215,0.0,9.0,68,0.00,,,0.00,meteohub,2013-05-15 12:09:00,
2013-05-15 07:16:00,68.7,57.7,29.21,SW,221,2.0,9.0,68,0.00,,,0.00,meteohub,2013-05-15 12:16:00,
2013-05-15 07:22:00,69.3,57.9,29.21,West,264,2.0,10.0,67,0.00,,,0.00,meteohub,2013-05-15 12:22:00,
2013-05-15 07:27:00,69.4,57.9,29.21,WSW,245,4.0,10.0,67,0.00,,,0.00,meteohub,2013-05-15 12:27:00,
2013-05-15 07:33:00,69.6,58.1,29.21,SW,222,1.0,10.0,67,0.00,,,0.00,meteohub,2013-05-15 12:33:00,
2013-05-15 07:39:00,70.2,58.3,29.21,WSW,249,2.0,7.0,66,0.00,,,0.00,meteohub,2013-05-15 12:39:00,
2013-05-15 07:46:00,70.3,58.1,29.21,SW,234,0.0,7.0,65,0.00,,,0.00,meteohub,2013-05-15 12:46:00,
2013-05-15 07:52:00,71.1,58.3,29.22,WSW,239,9.0,10.0,64,0.00,,,0.00,meteohub,2013-05-15 12:52:00,
2013-05-15 07:57:00,71.2,58.5,29.21,SW,221,3.0,11.0,64,0.00,,,0.00,meteohub,2013-05-15 12:57:00,
2013-05-15 08:05:00,71.8,58.5,29.22,WSW,242,4.0,11.0,63,0.00,,,0.00,meteohub,2013-05-15 13:05:00,
2013-05-15 08:10:00,72.1,58.8,29.22,West,268,0.0,14.0,63,0.00,,,0.00,meteohub,2013-05-15 13:10:00,
2013-05-15 08:17:00,72.7,58.8,29.22,SW,219,4.0,14.0,62,0.00,,,0.00,meteohub,2013-05-15 13:17:00,
2013-05-15 08:23:00,72.9,59.0,29.22,WSW,258,2.0,14.0,62,0.00,,,0.00,meteohub,2013-05-15 13:23:00,
2013-05-15 08:30:00,73.2,58.1,29.22,SW,236,7.0,16.0,59,0.00,,,0.00,meteohub,2013-05-15 13:30:00,
2013-05-15 08:35:00,73.9,58.6,29.22,West,260,1.0,15.0,59,0.00,,,0.00,meteohub,2013-05-15 13:35:00,
2013-05-15 08:40:00,74.3,58.6,29.22,West,267,4.0,16.0,58,0.00,,,0.00,meteohub,2013-05-15 13:40:00,
2013-05-15 08:46:00,74.7,58.5,29.22,WNW,285,9.0,16.0,57,0.00,,,0.00,meteohub,2013-05-15 13:46:00,
2013-05-15 08:52:00,75.0,57.7,29.22,West,274,7.0,16.0,55,0.00,,,0.00,meteohub,2013-05-15 13:52:00,
2013-05-15 08:57:00,75.4,58.1,29.22,SSW,196,11.0,15.0,55,0.00,,,0.00,meteohub,2013-05-15 13:57:00,
2013-05-15 09:05:00,75.6,58.3,29.22,SW,232,4.0,15.0,55,0.00,,,0.00,meteohub,2013-05-15 14:05:00,
2013-05-15 09:12:00,75.9,58.1,29.22,West,261,4.0,16.0,54,0.00,,,0.00,meteohub,2013-05-15 14:12:00,
2013-05-15 09:17:00,76.3,58.5,29.22,West,263,14.0,22.0,54,0.00,,,0.00,meteohub,2013-05-15 14:17:00,
2013-05-15 09:25:00,76.5,58.1,29.22,WSW,240,7.0,22.0,53,0.00,,,0.00,meteohub,2013-05-15 14:25:00,
2013-05-15 09:32:00,76.8,58.5,29.22,West,267,15.0,22.0,53,0.00,,,0.00,meteohub,2013-05-15 14:32:00,
2013-05-15 09:37:00,76.8,58.5,29.21,SW,222,10.0,22.0,53,0.00,,,0.00,meteohub,2013-05-15 14:37:00,
2013-05-15 09:42:00,77.4,58.3,29.21,West,259,10.0,22.0,52,0.00,,,0.00,meteohub,2013-05-15 14:42:00,
2013-05-15 09:47:00,77.7,58.1,29.21,SW,234,5.0,18.0,51,0.00,,,0.00,meteohub,2013-05-15 14:47:00,
2013-05-15 09:52:00,78.1,59.0,29.21,West,274,9.0,19.0,52,0.00,,,0.00,meteohub,2013-05-15 14:52:00,
2013-05-15 10:00:00,78.4,58.8,29.21,West,265,6.0,19.0,51,0.00,,,0.00,meteohub,2013-05-15 15:00:00,
2013-05-15 10:07:00,79.3,59.7,29.20,West,280,1.0,19.0,51,0.00,,,0.00,meteohub,2013-05-15 15:07:00,
2013-05-15 10:12:00,79.9,59.0,29.21,West,263,8.0,19.0,49,0.00,,,0.00,meteohub,2013-05-15 15:12:00,
2013-05-15 10:20:00,80.1,59.2,29.20,West,273,10.0,19.0,49,0.00,,,0.00,meteohub,2013-05-15 15:20:00,
2013-05-15 10:27:00,79.9,59.0,29.20,WSW,252,7.0,22.0,49,0.00,,,0.00,meteohub,2013-05-15 15:27:00,
2013-05-15 10:32:00,79.7,58.8,29.21,West,265,3.0,25.0,49,0.00,,,0.00,meteohub,2013-05-15 15:32:00,
2013-05-15 10:37:00,79.7,59.4,29.20,West,261,15.0,25.0,50,0.00,,,0.00,meteohub,2013-05-15 15:37:00,
2013-05-15 10:42:00,79.9,59.0,29.20,West,273,9.0,25.0,49,0.00,,,0.00,meteohub,2013-05-15 15:42:00,
2013-05-15 10:48:00,80.2,59.9,29.21,SW,215,4.0,25.0,50,0.00,,,0.00,meteohub,2013-05-15 15:48:00,
2013-05-15 10:55:00,80.6,59.2,29.20,WSW,251,13.0,17.0,48,0.00,,,0.00,meteohub,2013-05-15 15:55:00,
2013-05-15 11:01:00,80.6,59.7,29.21,West,272,5.0,22.0,49,0.00,,,0.00,meteohub,2013-05-15 16:01:00,
2013-05-15 11:07:00,81.3,59.7,29.21,WNW,290,13.0,22.0,48,0.00,,,0.00,meteohub,2013-05-15 16:07:00,
2013-05-15 11:12:00,81.3,60.3,29.21,WNW,302,8.0,16.0,49,0.00,,,0.00,meteohub,2013-05-15 16:12:00,
2013-05-15 11:17:00,81.3,59.7,29.21,WSW,243,9.0,16.0,48,0.00,,,0.00,meteohub,2013-05-15 16:17:00,
2013-05-15 11:22:00,81.1,60.1,29.21,WSW,257,4.0,17.0,49,0.00,,,0.00,meteohub,2013-05-15 16:22:00,
2013-05-15 11:27:00,81.1,60.1,29.21,WNW,296,3.0,17.0,49,0.00,,,0.00,meteohub,2013-05-15 16:27:00,
2013-05-15 11:32:00,81.1,60.1,29.21,WSW,254,4.0,18.0,49,0.00,,,0.00,meteohub,2013-05-15 16:32:00,
2013-05-15 11:38:00,81.1,60.8,29.21,WNW,283,8.0,18.0,50,0.00,,,0.00,meteohub,2013-05-15 16:38:00,
2013-05-15 11:45:00,81.9,61.3,29.20,South,175,3.0,18.0,50,0.00,,,0.00,meteohub,2013-05-15 16:45:00,
2013-05-15 11:51:00,81.9,60.3,29.20,WNW,283,4.0,13.0,48,0.00,,,0.00,meteohub,2013-05-15 16:51:00,
2013-05-15 11:57:00,81.9,60.8,29.21,WSW,238,7.0,16.0,49,0.00,,,0.00,meteohub,2013-05-15 16:57:00,
2013-05-15 12:02:00,82.2,61.2,29.20,West,263,1.0,16.0,49,0.00,,,0.00,meteohub,2013-05-15 17:02:00,
2013-05-15 12:08:00,82.8,61.0,29.20,West,269,6.0,16.0,48,0.00,,,0.00,meteohub,2013-05-15 17:08:00,
2013-05-15 12:16:00,82.8,61.0,29.20,NW,306,5.0,14.0,48,0.00,,,0.00,meteohub,2013-05-15 17:16:00,
2013-05-15 12:24:00,83.1,61.3,29.20,NW,313,2.0,13.0,48,0.00,,,0.00,meteohub,2013-05-15 17:24:00,
2013-05-15 12:31:00,83.7,61.3,29.20,West,279,3.0,13.0,47,0.00,,,0.00,meteohub,2013-05-15 17:31:00,
2013-05-15 12:37:00,83.5,61.2,29.19,WSW,240,9.0,16.0,47,0.00,,,0.00,meteohub,2013-05-15 17:37:00,
2013-05-15 12:42:00,83.8,62.1,29.20,NW,315,0.0,16.0,48,0.00,,,0.00,meteohub,2013-05-15 17:42:00,
2013-05-15 12:47:00,84.4,61.9,29.20,West,269,6.0,16.0,47,0.00,,,0.00,meteohub,2013-05-15 17:47:00,
2013-05-15 12:53:00,84.4,61.9,29.19,WNW,289,5.0,16.0,47,0.00,,,0.00,meteohub,2013-05-15 17:53:00,
2013-05-15 12:59:00,84.4,61.9,29.19,NNW,346,3.0,14.0,47,0.00,,,0.00,meteohub,2013-05-15 17:59:00,
2013-05-15 13:04:00,84.6,62.1,29.19,WSW,250,8.0,16.0,47,0.00,,,0.00,meteohub,2013-05-15 18:04:00,
2013-05-15 13:11:00,84.4,61.9,29.19,NW,305,2.0,16.0,47,0.00,,,0.00,meteohub,2013-05-15 18:11:00,
2013-05-15 13:17:00,85.3,62.8,29.19,SSW,208,3.0,12.0,47,0.00,,,0.00,meteohub,2013-05-15 18:17:00,
2013-05-15 13:22:00,85.1,62.1,29.19,WSW,257,2.0,12.0,46,0.00,,,0.00,meteohub,2013-05-15 18:22:00,
2013-05-15 13:28:00,85.3,62.8,29.18,WSW,244,0.0,12.0,47,0.00,,,0.00,meteohub,2013-05-15 18:28:00,
2013-05-15 13:37:00,85.1,62.6,29.18,WSW,241,11.0,15.0,47,0.00,,,0.00,meteohub,2013-05-15 18:37:00,
2013-05-15 13:42:00,85.3,62.2,29.18,WNW,286,0.0,15.0,46,0.00,,,0.00,meteohub,2013-05-15 18:42:00,
2013-05-15 13:47:00,85.6,62.4,29.18,NW,309,0.0,13.0,46,0.00,,,0.00,meteohub,2013-05-15 18:47:00,
2013-05-15 13:53:00,86.2,62.4,29.18,NW,308,6.0,13.0,45,0.00,,,0.00,meteohub,2013-05-15 18:53:00,
2013-05-15 13:58:00,86.2,62.4,29.18,West,261,5.0,12.0,45,0.00,,,0.00,meteohub,2013-05-15 18:58:00,
2013-05-15 14:06:00,86.2,62.4,29.18,NW,309,3.0,11.0,45,0.00,,,0.00,meteohub,2013-05-15 19:06:00,
2013-05-15 14:11:00,86.4,62.4,29.18,WNW,287,7.0,11.0,45,0.00,,,0.00,meteohub,2013-05-15 19:11:00,
2013-05-15 14:17:00,86.4,62.4,29.18,South,188,0.0,15.0,45,0.00,,,0.00,meteohub,2013-05-15 19:17:00,
2013-05-15 14:22:00,86.5,62.6,29.18,WNW,297,5.0,15.0,45,0.00,,,0.00,meteohub,2013-05-15 19:22:00,
2013-05-15 14:27:00,86.7,62.2,29.18,West,269,1.0,17.0,44,0.00,,,0.00,meteohub,2013-05-15 19:27:00,
2013-05-15 14:32:00,86.7,62.2,29.17,West,260,5.0,17.0,44,0.00,,,0.00,meteohub,2013-05-15 19:32:00,
2013-05-15 14:37:00,86.7,62.2,29.17,West,264,6.0,17.0,44,0.00,,,0.00,meteohub,2013-05-15 19:37:00,
2013-05-15 14:44:00,86.9,63.0,29.17,West,265,5.0,12.0,45,0.00,,,0.00,meteohub,2013-05-15 19:44:00,
2013-05-15 14:50:00,86.9,63.0,29.17,WNW,298,6.0,11.0,45,0.00,,,0.00,meteohub,2013-05-15 19:50:00,
2013-05-15 14:57:00,87.1,62.6,29.17,WNW,303,6.0,11.0,44,0.00,,,0.00,meteohub,2013-05-15 19:57:00,
2013-05-15 15:02:00,86.7,62.8,29.18,NNW,348,0.0,13.0,45,0.00,,,0.00,meteohub,2013-05-15 20:02:00,
2013-05-15 15:07:00,86.7,62.8,29.17,West,261,1.0,13.0,45,0.00,,,0.00,meteohub,2013-05-15 20:07:00,
2013-05-15 15:13:00,87.1,63.1,29.17,West,266,0.0,13.0,45,0.00,,,0.00,meteohub,2013-05-15 20:13:00,
2013-05-15 15:19:00,87.1,62.6,29.17,WSW,245,3.0,13.0,44,0.00,,,0.00,meteohub,2013-05-15 20:19:00,
2013-05-15 15:26:00,87.3,64.0,29.17,NW,306,2.0,12.0,46,0.00,,,0.00,meteohub,2013-05-15 20:26:00,
2013-05-15 15:32:00,87.4,62.8,29.17,NNW,330,3.0,13.0,44,0.00,,,0.00,meteohub,2013-05-15 20:32:00,
2013-05-15 15:37:00,87.3,62.6,29.16,North,350,0.0,13.0,44,0.00,,,0.00,meteohub,2013-05-15 20:37:00,
2013-05-15 15:43:00,87.3,63.3,29.17,NNW,330,7.0,12.0,45,0.00,,,0.00,meteohub,2013-05-15 20:43:00,
2013-05-15 15:52:00,87.3,63.3,29.16,SW,229,4.0,9.0,45,0.00,,,0.00,meteohub,2013-05-15 20:52:00,
2013-05-15 15:57:00,87.4,63.5,29.16,WSW,254,0.0,7.0,45,0.00,,,0.00,meteohub,2013-05-15 20:57:00,
2013-05-15 16:02:00,87.6,63.7,29.16,West,267,5.0,7.0,45,0.00,,,0.00,meteohub,2013-05-15 21:02:00,
2013-05-15 16:07:00,88.0,63.3,29.16,West,267,0.0,7.0,44,0.00,,,0.00,meteohub,2013-05-15 21:07:00,
2013-05-15 16:12:00,88.0,64.0,29.16,WSW,242,4.0,7.0,45,0.00,,,0.00,meteohub,2013-05-15 21:12:00,
2013-05-15 16:17:00,87.8,63.1,29.16,NNW,338,4.0,6.0,44,0.00,,,0.00,meteohub,2013-05-15 21:17:00,
2013-05-15 16:25:00,87.6,63.7,29.16,WNW,282,1.0,7.0,45,0.00,,,0.00,meteohub,2013-05-15 21:25:00,
2013-05-15 16:32:00,87.8,63.9,29.15,WNW,285,0.0,7.0,45,0.00,,,0.00,meteohub,2013-05-15 21:32:00,
2013-05-15 16:37:00,88.2,64.2,29.15,SW,225,4.0,7.0,45,0.00,,,0.00,meteohub,2013-05-15 21:37:00,
2013-05-15 16:42:00,88.3,64.2,29.14,SW,227,0.0,6.0,45,0.00,,,0.00,meteohub,2013-05-15 21:42:00,
2013-05-15 16:49:00,88.3,64.2,29.15,SW,219,2.0,7.0,45,0.00,,,0.00,meteohub,2013-05-15 21:49:00,
2013-05-15 16:56:00,88.2,64.2,29.14,WSW,258,0.0,7.0,45,0.00,,,0.00,meteohub,2013-05-15 21:56:00,
2013-05-15 17:01:00,88.0,64.6,29.14,WSW,241,2.0,10.0,46,0.00,,,0.00,meteohub,2013-05-15 22:01:00,
2013-05-15 17:07:00,88.2,64.2,29.14,WNW,300,0.0,10.0,45,0.00,,,0.00,meteohub,2013-05-15 22:07:00,
2013-05-15 17:12:00,88.2,62.8,29.14,WNW,300,4.0,10.0,43,0.00,,,0.00,meteohub,2013-05-15 22:12:00,
2013-05-15 17:18:00,88.2,63.5,29.14,WNW,287,5.0,10.0,44,0.00,,,0.00,meteohub,2013-05-15 22:18:00,
2013-05-15 17:24:00,88.2,63.5,29.14,West,265,6.0,10.0,44,0.00,,,0.00,meteohub,2013-05-15 22:24:00,
2013-05-15 17:31:00,88.2,63.5,29.14,West,265,5.0,6.0,44,0.00,,,0.00,meteohub,2013-05-15 22:31:00,
2013-05-15 17:38:00,88.3,63.7,29.13,WNW,294,2.0,6.0,44,0.00,,,0.00,meteohub,2013-05-15 22:38:00,
2013-05-15 17:45:00,88.3,63.7,29.14,WNW,294,4.0,6.0,44,0.00,,,0.00,meteohub,2013-05-15 22:45:00,
2013-05-15 17:52:00,88.3,63.7,29.13,NW,306,5.0,10.0,44,0.00,,,0.00,meteohub,2013-05-15 22:52:00,
2013-05-15 17:57:00,88.0,63.3,29.13,West,268,4.0,10.0,44,0.00,,,0.00,meteohub,2013-05-15 22:57:00,
2013-05-15 18:02:00,87.8,63.9,29.13,West,279,1.0,10.0,45,0.00,,,0.00,meteohub,2013-05-15 23:02:00,
2013-05-15 18:07:00,88.0,63.3,29.13,NW,319,0.0,7.0,44,0.00,,,0.00,meteohub,2013-05-15 23:07:00,
2013-05-15 18:12:00,88.0,64.0,29.13,NW,310,0.0,7.0,45,0.00,,,0.00,meteohub,2013-05-15 23:12:00,
2013-05-15 18:17:00,88.0,63.3,29.13,NW,310,0.0,5.0,44,0.00,,,0.00,meteohub,2013-05-15 23:17:00,
2013-05-15 18:22:00,88.0,64.0,29.13,NNW,328,0.0,5.0,45,0.00,,,0.00,meteohub,2013-05-15 23:22:00,
2013-05-15 18:27:00,87.8,63.9,29.13,WNW,296,2.0,7.0,45,0.00,,,0.00,meteohub,2013-05-15 23:27:00,
2013-05-15 18:32:00,87.6,63.7,29.12,West,263,2.0,7.0,45,0.00,,,0.00,meteohub,2013-05-15 23:32:00,
2013-05-15 18:40:00,87.6,63.7,29.12,West,263,0.0,7.0,45,0.00,,,0.00,meteohub,2013-05-15 23:40:00,
2013-05-15 18:47:00,87.6,64.2,29.12,West,277,0.0,6.0,46,0.00,,,0.00,meteohub,2013-05-15 23:47:00,
2013-05-15 18:52:00,87.6,64.2,29.12,West,277,0.0,4.0,46,0.00,,,0.00,meteohub,2013-05-15 23:52:00,
2013-05-15 18:57:00,87.6,63.7,29.12,West,277,0.0,3.0,45,0.00,,,0.00,meteohub,2013-05-15 23:57:00,
2013-05-15 19:03:00,87.8,63.9,29.12,West,277,0.0,3.0,45,0.00,,,0.00,meteohub,2013-05-16 00:03:00,
2013-05-15 19:09:00,87.8,63.9,29.12,West,276,0.0,3.0,45,0.00,,,0.00,meteohub,2013-05-16 00:09:00,
2013-05-15 19:15:00,87.6,64.2,29.13,West,276,2.0,3.0,46,0.00,,,0.00,meteohub,2013-05-16 00:15:00,
2013-05-15 19:21:00,87.3,64.0,29.13,West,276,0.0,3.0,46,0.00,,,0.00,meteohub,2013-05-16 00:21:00,
2013-05-15 19:27:00,86.7,64.0,29.12,West,276,0.0,3.0,47,0.00,,,0.00,meteohub,2013-05-16 00:27:00,
2013-05-15 19:32:00,86.4,64.4,29.13,WSW,239,0.0,1.0,48,0.00,,,0.00,meteohub,2013-05-16 00:32:00,
2013-05-15 19:37:00,86.2,64.2,29.13,WNW,286,2.0,2.0,48,0.00,,,0.00,meteohub,2013-05-16 00:37:00,
2013-05-15 19:42:00,85.8,64.4,29.13,WNW,292,3.0,3.0,49,0.00,,,0.00,meteohub,2013-05-16 00:42:00,
2013-05-15 19:50:00,85.5,64.8,29.13,WNW,292,0.0,3.0,50,0.00,,,0.00,meteohub,2013-05-16 00:50:00,
2013-05-15 19:55:00,85.3,65.1,29.14,WNW,292,0.0,3.0,51,0.00,,,0.00,meteohub,2013-05-16 00:55:00,
2013-05-15 20:02:00,84.9,64.8,29.13,WNW,292,0.0,1.0,51,0.00,,,0.00,meteohub,2013-05-16 01:02:00,
2013-05-15 20:07:00,84.7,65.1,29.13,WNW,292,0.0,1.0,52,0.00,,,0.00,meteohub,2013-05-16 01:07:00,
2013-05-15 20:12:00,84.6,65.5,29.13,NE,43,0.0,1.0,53,0.00,,,0.00,meteohub,2013-05-16 01:12:00,
2013-05-15 20:17:00,83.8,65.5,29.13,NNE,31,4.0,5.0,54,0.00,,,0.00,meteohub,2013-05-16 01:17:00,
2013-05-15 20:27:00,82.6,64.2,29.13,NNE,18,0.0,5.0,54,0.00,,,0.00,meteohub,2013-05-16 01:27:00,
2013-05-15 20:32:00,82.0,64.2,29.14,NE,52,2.0,4.0,55,0.00,,,0.00,meteohub,2013-05-16 01:32:00,
2013-05-15 20:37:00,82.2,63.9,29.13,NNE,32,0.0,4.0,54,0.00,,,0.00,meteohub,2013-05-16 01:37:00,
2013-05-15 20:44:00,81.1,64.0,29.14,NNE,13,3.0,5.0,56,0.00,,,0.00,meteohub,2013-05-16 01:44:00,
2013-05-15 20:52:00,80.4,63.3,29.14,NE,38,0.0,7.0,56,0.00,,,0.00,meteohub,2013-05-16 01:52:00,
2013-05-15 20:57:00,80.2,63.1,29.15,NE,50,0.0,7.0,56,0.00,,,0.00,meteohub,2013-05-16 01:57:00,
2013-05-15 21:02:00,80.1,63.5,29.15,NE,49,0.0,7.0,57,0.00,,,0.00,meteohub,2013-05-16 02:02:00,
2013-05-15 21:07:00,79.9,62.8,29.15,NE,49,0.0,5.0,56,0.00,,,0.00,meteohub,2013-05-16 02:07:00,
2013-05-15 21:13:00,79.5,63.0,29.15,NE,49,0.0,5.0,57,0.00,,,0.00,meteohub,2013-05-16 02:13:00,
2013-05-15 21:20:00,79.3,63.3,29.15,NE,51,0.0,3.0,58,0.00,,,0.00,meteohub,2013-05-16 02:20:00,
2013-05-15 21:25:00,79.2,63.1,29.15,NE,51,0.0,3.0,58,0.00,,,0.00,meteohub,2013-05-16 02:25:00,
2013-05-15 21:32:00,78.8,63.3,29.16,NE,51,0.0,1.0,59,0.00,,,0.00,meteohub,2013-05-16 02:32:00,
2013-05-15 21:40:00,78.6,63.5,29.15,SW,221,5.0,5.0,60,0.00,,,0.00,meteohub,2013-05-16 02:40:00,
2013-05-15 21:46:00,78.4,63.3,29.16,SW,225,1.0,6.0,60,0.00,,,0.00,meteohub,2013-05-16 02:46:00,
2013-05-15 21:51:00,78.3,62.2,29.17,WNW,300,4.0,10.0,58,0.00,,,0.00,meteohub,2013-05-16 02:51:00,
2013-05-15 21:57:00,78.3,61.3,29.17,North,355,1.0,12.0,56,0.00,,,0.00,meteohub,2013-05-16 02:57:00,
2013-05-15 22:02:00,78.3,60.8,29.17,North,355,1.0,12.0,55,0.00,,,0.00,meteohub,2013-05-16 03:02:00,
2013-05-15 22:07:00,78.4,63.9,29.18,NNW,348,3.0,12.0,61,0.00,,,0.00,meteohub,2013-05-16 03:07:00,
2013-05-15 22:15:00,78.4,65.7,29.17,North,351,0.0,10.0,65,0.00,,,0.00,meteohub,2013-05-16 03:15:00,
2013-05-15 22:21:00,77.9,66.6,29.17,North,351,0.0,6.0,68,0.00,,,0.00,meteohub,2013-05-16 03:21:00,
2013-05-15 22:28:00,77.4,66.7,29.17,SW,215,1.0,4.0,70,0.00,,,0.00,meteohub,2013-05-16 03:28:00,
2013-05-15 22:34:00,76.6,66.6,29.18,WNW,296,12.0,12.0,71,0.00,,,0.00,meteohub,2013-05-16 03:34:00,
2013-05-15 22:41:00,75.7,66.4,29.18,NW,324,9.0,14.0,73,0.00,,,0.00,meteohub,2013-05-16 03:41:00,
2013-05-15 22:46:00,74.5,65.7,29.18,WSW,253,4.0,17.0,74,0.00,,,0.00,meteohub,2013-05-16 03:46:00,
2013-05-15 22:52:00,73.8,63.3,29.18,WSW,240,2.0,12.0,70,0.00,,,0.00,meteohub,2013-05-16 03:52:00,
2013-05-15 22:57:00,73.6,64.4,29.19,SW,217,3.0,10.0,73,0.00,,,0.00,meteohub,2013-05-16 03:57:00,
2013-05-15 23:02:00,73.2,65.7,29.19,SSW,207,6.0,9.0,77,0.00,,,0.00,meteohub,2013-05-16 04:02:00,
2013-05-15 23:03:00,73.2,65.7,29.19,SSW,204,3.0,9.0,77,0.00,,,0.00,meteohub,2013-05-16 04:03:00,
2013-05-15 23:08:00,72.9,65.7,29.19,SSW,200,0.0,11.0,78,0.00,,,0.00,meteohub,2013-05-16 04:08:00,
2013-05-15 23:13:00,72.9,66.0,29.19,SSW,200,0.0,11.0,79,0.00,,,0.00,meteohub,2013-05-16 04:13:00,
2013-05-15 23:18:00,72.9,66.4,29.20,SSW,200,0.0,11.0,80,0.00,,,0.00,meteohub,2013-05-16 04:18:00,
2013-05-15 23:23:00,72.9,66.4,29.19,SSW,200,0.0,4.0,80,0.00,,,0.00,meteohub,2013-05-16 04:23:00,
2013-05-15 23:28:00,72.9,66.4,29.20,SSW,200,0.0,0.0,80,0.00,,,0.00,meteohub,2013-05-16 04:28:00,
2013-05-15 23:33:00,72.7,65.8,29.19,WSW,254,0.0,0.0,79,0.00,,,0.00,meteohub,2013-05-16 04:33:00,
2013-05-15 23:38:00,72.7,65.8,29.20,WSW,254,0.0,3.0,79,0.00,,,0.00,meteohub,2013-05-16 04:38:00,
2013-05-15 23:43:00,72.9,66.4,29.20,WSW,254,0.0,3.0,80,0.00,,,0.00,meteohub,2013-05-16 04:43:00,
2013-05-15 23:48:00,72.9,66.4,29.19,WSW,254,0.0,3.0,80,0.00,,,0.00,meteohub,2013-05-16 04:48:00,
2013-05-15 23:53:00,72.9,66.4,29.19,WSW,254,2.0,2.0,80,0.00,,,0.00,meteohub,2013-05-16 04:53:00,
2013-05-15 23:58:00,72.7,65.8,29.19,WSW,255,2.0,4.0,79,0.00,,,0.00,meteohub,2013-05-16 04:58:00,